Time,TemperatureF,DewpointF,PressureIn,WindDirection,WindDirectionDegrees,WindSpeedMPH,WindSpeedGustMPH,Humidity,HourlyPrecipIn,Conditions,Clouds,dailyrainin,SolarRadiationWatts/m^2,SoftwareType,DateUTC
2013-01-03 00:00:00,-4.4,-8.2,29.92,ESE,103,1.0,3.0,83,0.00,,---,0.01,0.00,VWS V14.00,2013-01-03 05:00:00,
2013-01-03 00:02:00,-6.3,-10.6,30.22,NW,317,0.0,0.0,81,0.00,,---,0.02,,VWS V14.00,2013-01-03 05:02:00,
2013-01-03 00:03:00,-6.4,-10.7,30.22,NW,317,0.0,0.0,81,0.00,,---,0.02,,VWS V14.00,2013-01-03 05:03:00,
2013-01-03 00:08:00,-6.6,-10.9,30.22,NW,317,0.0,0.0,81,0.00,,---,0.02,,VWS V14.00,2013-01-03 05:08:00,
2013-01-03 00:13:00,-7.0,-11.3,30.22,NW,319,1.0,2.0,81,0.00,,---,0.02,,VWS V14.00,2013-01-03 05:13:00,
2013-01-03 00:18:00,-7.5,-12.0,30.22,NW,319,0.0,0.0,80,0.00,,---,0.02,,VWS V14.00,2013-01-03 05:18:00,
2013-01-03 00:23:00,-7.8,-12.1,30.22,NW,319,0.0,0.0,81,0.00,,---,0.02,,VWS V14.00,2013-01-03 05:23:00,
2013-01-03 00:28:00,-8.0,-12.5,30.22,NW,319,0.0,0.0,80,0.00,,---,0.02,,VWS V14.00,2013-01-03 05:28:00,
2013-01-03 00:30:00,-3.8,-7.4,29.92,ESE,116,0.0,2.0,84,0.00,,---,0.00,0.00,VWS V14.00,2013-01-03 05:30:00,
2013-01-03 00:33:00,-8.4,-12.9,30.22,NW,319,0.0,0.0,80,0.00,,---,0.02,,VWS V14.00,2013-01-03 05:33:00,
2013-01-03 00:38:00,-8.6,-12.9,30.22,NW,319,0.0,0.0,81,0.00,,---,0.02,,VWS V14.00,2013-01-03 05:38:00,
2013-01-03 00:43:00,-8.9,-13.4,30.22,NW,319,0.0,0.0,80,0.00,,---,0.02,,VWS V14.00,2013-01-03 05:43:00,
2013-01-03 00:48:00,-9.1,-13.6,30.22,NW,319,0.0,0.0,80,0.00,,---,0.02,,VWS V14.00,2013-01-03 05:48:00,
2013-01-03 00:53:00,-9.3,-13.5,30.22,NW,319,0.0,3.0,81,0.00,,---,0.02,,VWS V14.00,2013-01-03 05:53:00,
2013-01-03 00:58:00,-9.4,-13.6,30.23,NW,319,0.0,3.0,81,0.00,,---,0.02,,VWS V14.00,2013-01-03 05:58:00,
2013-01-03 01:00:00,-2.3,-5.9,29.92,ESE,116,0.0,0.0,84,0.00,,---,0.00,0.00,VWS V14.00,2013-01-03 06:00:00,
2013-01-03 01:03:00,-9.5,-13.7,30.23,NW,319,0.0,3.0,81,0.00,,---,0.02,,VWS V14.00,2013-01-03 06:03:00,
2013-01-03 01:08:00,-9.6,-13.8,30.23,NNW,334,0.0,3.0,81,0.00,,---,0.02,,VWS V14.00,2013-01-03 06:08:00,
2013-01-03 01:13:00,-9.8,-14.0,30.23,NNW,336,0.0,3.0,81,0.00,,---,0.02,,VWS V14.00,2013-01-03 06:13:00,
2013-01-03 01:18:00,-9.8,-14.0,30.23,NNW,336,0.0,0.0,81,0.00,,---,0.02,,VWS V14.00,2013-01-03 06:18:00,
2013-01-03 01:23:00,-9.8,-14.0,30.23,NNW,336,0.0,0.0,81,0.00,,---,0.02,,VWS V14.00,2013-01-03 06:23:00,
2013-01-03 01:28:00,-9.9,-14.1,30.23,NNW,336,0.0,0.0,81,0.00,,---,0.02,,VWS V14.00,2013-01-03 06:28:00,
2013-01-03 01:30:00,1.2,-2.0,29.91,ESE,109,2.0,2.0,86,0.00,,---,0.00,0.00,VWS V14.00,2013-01-03 06:30:00,
2013-01-03 01:33:00,-9.9,-14.1,30.23,NNW,336,0.0,0.0,81,0.00,,---,0.02,,VWS V14.00,2013-01-03 06:33:00,
2013-01-03 01:38:00,-10.1,-14.3,30.23,NNW,336,0.0,0.0,81,0.00,,---,0.02,,VWS V14.00,2013-01-03 06:38:00,
2013-01-03 01:43:00,-10.4,-14.9,30.23,NNW,336,1.0,1.0,80,0.00,,---,0.02,,VWS V14.00,2013-01-03 06:43:00,
2013-01-03 01:48:00,-10.7,-15.1,30.23,NNW,336,0.0,0.0,80,0.00,,---,0.02,,VWS V14.00,2013-01-03 06:48:00,
2013-01-03 01:53:00,-11.1,-15.5,30.23,NNW,336,0.0,1.0,80,0.00,,---,0.02,,VWS V14.00,2013-01-03 06:53:00,
2013-01-03 01:58:00,-11.1,-15.5,30.23,NNW,336,0.0,1.0,80,0.00,,---,0.02,,VWS V14.00,2013-01-03 06:58:00,
2013-01-03 02:00:00,4.0,1.0,29.91,ESE,108,0.0,3.0,87,0.00,,---,0.00,0.00,VWS V14.00,2013-01-03 07:00:00,
2013-01-03 02:03:00,-11.2,-15.6,30.23,NNW,336,0.0,1.0,80,0.00,,---,0.02,,VWS V14.00,2013-01-03 07:03:00,
2013-01-03 02:08:00,-11.2,-15.4,30.24,North,355,0.0,2.0,81,0.00,,---,0.02,,VWS V14.00,2013-01-03 07:08:00,
2013-01-03 02:13:00,-10.8,-15.0,30.23,North,355,0.0,2.0,81,0.00,,---,0.02,,VWS V14.00,2013-01-03 07:13:00,
2013-01-03 02:18:00,-10.8,-15.0,30.23,North,355,0.0,0.0,81,0.00,,---,0.00,,VWS V14.00,2013-01-03 07:18:00,
2013-01-03 02:23:00,-11.1,-15.3,30.23,North,355,0.0,0.0,81,0.00,,---,0.00,,VWS V14.00,2013-01-03 07:23:00,
2013-01-03 02:28:00,-11.3,-15.7,30.24,North,355,0.0,1.0,80,0.00,,---,0.00,,VWS V14.00,2013-01-03 07:28:00,
2013-01-03 02:30:00,5.3,2.3,29.89,NNW,344,0.0,4.0,87,0.00,,---,0.00,0.00,VWS V14.00,2013-01-03 07:30:00,
2013-01-03 02:33:00,-11.4,-15.6,30.23,North,355,0.0,1.0,81,0.00,,---,0.00,,VWS V14.00,2013-01-03 07:33:00,
2013-01-03 02:38:00,-11.2,-15.4,30.23,North,355,0.0,1.0,81,0.00,,---,0.00,,VWS V14.00,2013-01-03 07:38:00,
2013-01-03 02:43:00,-11.1,-15.3,30.23,North,355,0.0,1.0,81,0.00,,---,0.00,,VWS V14.00,2013-01-03 07:43:00,
2013-01-03 02:48:00,-11.3,-15.5,30.23,North,355,0.0,0.0,81,0.00,,---,0.00,,VWS V14.00,2013-01-03 07:48:00,
2013-01-03 02:53:00,-11.4,-15.6,30.23,North,355,0.0,0.0,81,0.00,,---,0.00,,VWS V14.00,2013-01-03 07:53:00,
2013-01-03 02:58:00,-11.5,-15.7,30.23,North,355,0.0,0.0,81,0.00,,---,0.00,,VWS V14.00,2013-01-03 07:58:00,
2013-01-03 03:00:00,6.7,3.7,29.89,North,355,0.0,3.0,87,0.00,,---,0.00,0.00,VWS V14.00,2013-01-03 08:00:00,
2013-01-03 03:03:00,-11.8,-16.0,30.22,North,355,0.0,0.0,81,0.00,,---,0.00,,VWS V14.00,2013-01-03 08:03:00,
2013-01-03 03:09:00,-12.0,-16.2,30.22,North,355,0.0,0.0,81,0.00,,---,0.00,,VWS V14.00,2013-01-03 08:09:00,
2013-01-03 03:14:00,-11.9,-16.1,30.22,North,355,0.0,0.0,81,0.00,,---,0.00,,VWS V14.00,2013-01-03 08:14:00,
2013-01-03 03:19:00,-11.8,-16.0,30.22,North,355,0.0,0.0,81,0.00,,---,0.00,,VWS V14.00,2013-01-03 08:19:00,
2013-01-03 03:24:00,-11.8,-16.0,30.21,North,355,0.0,0.0,81,0.00,,---,0.00,,VWS V14.00,2013-01-03 08:24:00,
2013-01-03 03:29:00,-11.6,-15.8,30.21,North,355,0.0,0.0,81,0.00,,---,0.00,,VWS V14.00,2013-01-03 08:29:00,
2013-01-03 03:30:00,7.7,4.7,29.88,North,355,0.0,3.0,87,0.00,,---,0.00,0.00,VWS V14.00,2013-01-03 08:30:00,
2013-01-03 03:34:00,-11.3,-15.5,30.21,North,355,0.0,0.0,81,0.00,,---,0.00,,VWS V14.00,2013-01-03 08:34:00,
2013-01-03 03:39:00,-11.2,-15.4,30.20,North,355,0.0,0.0,81,0.00,,---,0.00,,VWS V14.00,2013-01-03 08:39:00,
2013-01-03 03:44:00,-11.2,-15.4,30.21,North,355,0.0,0.0,81,0.00,,---,0.00,,VWS V14.00,2013-01-03 08:44:00,
2013-01-03 03:49:00,-11.3,-15.5,30.20,North,355,0.0,0.0,81,0.00,,---,0.00,,VWS V14.00,2013-01-03 08:49:00,
2013-01-03 03:54:00,-11.2,-15.4,30.20,North,355,0.0,0.0,81,0.00,,---,0.00,,VWS V14.00,2013-01-03 08:54:00,
2013-01-03 03:59:00,-11.3,-15.5,30.20,North,355,0.0,0.0,81,0.00,,---,0.00,,VWS V14.00,2013-01-03 08:59:00,
2013-01-03 04:00:00,9.3,6.2,29.87,NW,304,0.0,5.0,87,0.00,,---,0.00,0.00,VWS V14.00,2013-01-03 09:00:00,
2013-01-03 04:04:00,-11.5,-15.7,30.19,North,355,0.0,0.0,81,0.00,,---,0.00,,VWS V14.00,2013-01-03 09:04:00,
2013-01-03 04:09:00,-11.9,-16.1,30.18,North,355,0.0,0.0,81,0.00,,---,0.00,,VWS V14.00,2013-01-03 09:09:00,
2013-01-03 04:14:00,-11.9,-16.1,30.19,North,355,0.0,0.0,81,0.00,,---,0.00,,VWS V14.00,2013-01-03 09:14:00,
2013-01-03 04:19:00,-12.0,-16.2,30.19,North,355,0.0,0.0,81,0.00,,---,0.00,,VWS V14.00,2013-01-03 09:19:00,
2013-01-03 04:24:00,-12.1,-16.3,30.19,North,355,0.0,0.0,81,0.00,,---,0.00,,VWS V14.00,2013-01-03 09:24:00,
2013-01-03 04:29:00,-12.3,-16.7,30.19,North,355,0.0,0.0,80,0.00,,---,0.00,,VWS V14.00,2013-01-03 09:29:00,
2013-01-03 04:30:00,10.2,6.8,29.87,NNW,327,1.0,5.0,86,0.00,,---,0.00,0.00,VWS V14.00,2013-01-03 09:30:00,
2013-01-03 04:34:00,-12.4,-16.8,30.19,North,355,0.0,0.0,80,0.00,,---,0.00,,VWS V14.00,2013-01-03 09:34:00,
2013-01-03 04:39:00,-12.6,-17.0,30.19,North,355,0.0,0.0,80,0.00,,---,0.00,,VWS V14.00,2013-01-03 09:39:00,
2013-01-03 04:44:00,-12.8,-17.2,30.19,North,355,0.0,0.0,80,0.00,,---,0.00,,VWS V14.00,2013-01-03 09:44:00,
2013-01-03 04:49:00,-13.3,-17.7,30.20,North,355,0.0,0.0,80,0.00,,---,0.00,,VWS V14.00,2013-01-03 09:49:00,
2013-01-03 04:54:00,-13.4,-17.8,30.20,North,355,0.0,0.0,80,0.00,,---,0.00,,VWS V14.00,2013-01-03 09:54:00,
2013-01-03 04:59:00,-13.5,-17.9,30.20,North,355,0.0,0.0,80,0.00,,---,0.00,,VWS V14.00,2013-01-03 09:59:00,
2013-01-03 05:00:00,10.7,7.3,29.88,NW,309,0.0,4.0,86,0.00,,---,0.00,0.00,VWS V14.00,2013-01-03 10:00:00,
2013-01-03 05:04:00,-13.6,-18.0,30.20,North,355,0.0,0.0,80,0.00,,---,0.00,,VWS V14.00,2013-01-03 10:04:00,
2013-01-03 05:09:00,-13.8,-18.2,30.20,North,355,0.0,0.0,80,0.00,,---,0.00,,VWS V14.00,2013-01-03 10:09:00,
2013-01-03 05:14:00,-13.8,-18.2,30.20,North,355,0.0,0.0,80,0.00,,---,0.00,,VWS V14.00,2013-01-03 10:14:00,
2013-01-03 05:19:00,-13.8,-18.2,30.20,North,355,0.0,0.0,80,0.00,,---,0.00,,VWS V14.00,2013-01-03 10:19:00,
2013-01-03 05:24:00,-14.0,-18.4,30.20,North,355,0.0,0.0,80,0.00,,---,0.00,,VWS V14.00,2013-01-03 10:24:00,
2013-01-03 05:29:00,-14.1,-18.5,30.20,North,355,0.0,0.0,80,0.00,,---,0.00,,VWS V14.00,2013-01-03 10:29:00,
2013-01-03 05:30:00,10.9,7.5,29.89,NNW,331,0.0,6.0,86,0.00,,---,0.00,0.00,VWS V14.00,2013-01-03 10:30:00,
2013-01-03 05:34:00,-14.2,-18.6,30.20,North,355,0.0,0.0,80,0.00,,---,0.00,,VWS V14.00,2013-01-03 10:34:00,
2013-01-03 05:39:00,-14.2,-18.6,30.20,North,355,0.0,0.0,80,0.00,,---,0.00,,VWS V14.00,2013-01-03 10:39:00,
2013-01-03 05:44:00,-14.2,-18.6,30.20,North,355,0.0,0.0,80,0.00,,---,0.00,,VWS V14.00,2013-01-03 10:44:00,
2013-01-03 05:49:00,-14.3,-18.7,30.20,North,355,0.0,0.0,80,0.00,,---,0.00,,VWS V14.00,2013-01-03 10:49:00,
2013-01-03 05:54:00,-14.4,-18.8,30.20,North,355,0.0,0.0,80,0.00,,---,0.00,,VWS V14.00,2013-01-03 10:54:00,
2013-01-03 05:59:00,-14.5,-18.9,30.21,North,355,0.0,0.0,80,0.00,,---,0.00,,VWS V14.00,2013-01-03 10:59:00,
2013-01-03 06:00:00,11.0,7.6,29.89,WSW,244,2.0,5.0,86,0.01,,---,0.01,7.00,VWS V14.00,2013-01-03 11:00:00,
2013-01-03 06:04:00,-14.6,-19.0,30.21,North,355,0.0,0.0,80,0.00,,---,0.00,,VWS V14.00,2013-01-03 11:04:00,
2013-01-03 06:09:00,-14.7,-19.1,30.21,North,355,0.0,0.0,80,0.00,,---,0.00,,VWS V14.00,2013-01-03 11:09:00,
2013-01-03 06:14:00,-14.9,-19.2,30.21,North,355,0.0,0.0,80,0.00,,---,0.00,,VWS V14.00,2013-01-03 11:14:00,
2013-01-03 06:19:00,-15.1,-19.5,30.21,North,355,0.0,0.0,80,0.00,,---,0.00,,VWS V14.00,2013-01-03 11:19:00,
2013-01-03 06:24:00,-15.2,-19.5,30.21,North,355,0.0,0.0,80,0.00,,---,0.00,,VWS V14.00,2013-01-03 11:24:00,
2013-01-03 06:29:00,-15.2,-19.5,30.21,North,355,0.0,0.0,80,0.00,,---,0.00,,VWS V14.00,2013-01-03 11:29:00,
2013-01-03 06:30:00,11.7,8.6,29.91,SW,219,1.0,5.0,87,0.01,,---,0.01,18.00,VWS V14.00,2013-01-03 11:30:00,
2013-01-03 06:34:00,-15.2,-19.5,30.21,North,355,0.0,0.0,80,0.00,,---,0.00,,VWS V14.00,2013-01-03 11:34:00,
2013-01-03 06:39:00,-15.3,-19.6,30.21,North,355,0.0,0.0,80,0.00,,---,0.00,,VWS V14.00,2013-01-03 11:39:00,
2013-01-03 06:44:00,-15.3,-19.6,30.21,North,355,0.0,0.0,80,0.00,,---,0.00,,VWS V14.00,2013-01-03 11:44:00,
2013-01-03 06:49:00,-15.4,-19.7,30.21,North,355,0.0,0.0,80,0.00,,---,0.00,,VWS V14.00,2013-01-03 11:49:00,
2013-01-03 06:54:00,-15.5,-19.8,30.21,North,355,0.0,0.0,80,0.00,,---,0.00,,VWS V14.00,2013-01-03 11:54:00,
2013-01-03 06:59:00,-15.5,-19.8,30.22,North,355,0.0,0.0,80,0.00,,---,0.00,,VWS V14.00,2013-01-03 11:59:00,
2013-01-03 07:00:00,12.6,9.5,29.92,SW,234,0.0,5.0,87,0.01,,---,0.01,39.00,VWS V14.00,2013-01-03 12:00:00,
2013-01-03 07:04:00,-15.5,-19.8,30.22,North,355,0.0,0.0,80,0.00,,---,0.00,,VWS V14.00,2013-01-03 12:04:00,
2013-01-03 07:09:00,-15.4,-19.7,30.22,North,355,0.0,0.0,80,0.00,,---,0.00,,VWS V14.00,2013-01-03 12:09:00,
2013-01-03 07:14:00,-15.4,-19.7,30.21,North,355,0.0,0.0,80,0.00,,---,0.00,,VWS V14.00,2013-01-03 12:14:00,
2013-01-03 07:19:00,-15.3,-19.6,30.21,North,355,0.0,0.0,80,0.00,,---,0.00,,VWS V14.00,2013-01-03 12:19:00,
2013-01-03 07:25:00,-15.2,-19.5,30.21,North,355,0.0,0.0,80,0.00,,---,0.00,,VWS V14.00,2013-01-03 12:25:00,
2013-01-03 07:30:00,-15.4,-19.7,30.21,North,355,0.0,0.0,80,0.00,,---,0.00,,VWS V14.00,2013-01-03 12:30:00,
2013-01-03 07:35:00,-15.4,-19.7,30.21,North,355,0.0,0.0,80,0.00,,---,0.00,,VWS V14.00,2013-01-03 12:35:00,
2013-01-03 07:40:00,-15.3,-19.6,30.21,North,355,0.0,0.0,80,0.00,,---,0.00,,VWS V14.00,2013-01-03 12:40:00,
2013-01-03 07:45:00,-15.2,-19.5,30.20,North,355,0.0,0.0,80,0.00,,---,0.00,,VWS V14.00,2013-01-03 12:45:00,
2013-01-03 07:50:00,-15.1,-19.5,30.20,North,355,0.0,0.0,80,0.00,,---,0.00,,VWS V14.00,2013-01-03 12:50:00,
2013-01-03 07:55:00,-15.2,-19.5,30.20,North,355,0.0,0.0,80,0.00,,---,0.00,,VWS V14.00,2013-01-03 12:55:00,
2013-01-03 08:00:00,-15.3,-19.6,30.19,North,355,0.0,0.0,80,0.00,,---,0.00,,VWS V14.00,2013-01-03 13:00:00,
2013-01-03 08:05:00,-15.2,-19.5,30.20,North,355,0.0,0.0,80,0.00,,---,0.00,,VWS V14.00,2013-01-03 13:05:00,
2013-01-03 08:10:00,-15.1,-19.5,30.20,North,355,0.0,0.0,80,0.00,,---,0.00,,VWS V14.00,2013-01-03 13:10:00,
2013-01-03 08:15:00,-14.9,-19.2,30.20,North,355,0.0,0.0,80,0.00,,---,0.00,,VWS V14.00,2013-01-03 13:15:00,
2013-01-03 08:20:00,-14.7,-19.1,30.19,North,355,0.0,0.0,80,0.00,,---,0.00,,VWS V14.00,2013-01-03 13:20:00,
2013-01-03 08:25:00,-14.6,-19.0,30.20,North,355,0.0,0.0,80,0.00,,---,0.00,,VWS V14.00,2013-01-03 13:25:00,
2013-01-03 08:30:00,-14.2,-18.3,30.20,North,355,0.0,2.0,81,0.00,,---,0.00,,VWS V14.00,2013-01-03 13:30:00,
2013-01-03 08:35:00,-13.9,-18.0,30.20,North,355,0.0,2.0,81,0.00,,---,0.00,,VWS V14.00,2013-01-03 13:35:00,
2013-01-03 08:40:00,-13.2,-17.4,30.19,North,355,0.0,2.0,81,0.00,,---,0.00,,VWS V14.00,2013-01-03 13:40:00,
2013-01-03 08:45:00,-12.6,-16.8,30.19,North,355,0.0,2.0,81,0.00,,---,0.00,,VWS V14.00,2013-01-03 13:45:00,
2013-01-03 08:50:00,-12.4,-16.6,30.18,North,355,0.0,0.0,81,0.00,,---,0.00,,VWS V14.00,2013-01-03 13:50:00,
2013-01-03 08:55:00,-12.0,-16.2,30.19,North,355,0.0,0.0,81,0.00,,---,0.00,,VWS V14.00,2013-01-03 13:55:00,
2013-01-03 09:00:00,-11.5,-15.7,30.19,North,355,0.0,0.0,81,0.00,,---,0.00,,VWS V14.00,2013-01-03 14:00:00,
2013-01-03 09:05:00,-11.0,-14.9,30.19,North,355,0.0,0.0,82,0.00,,---,0.00,,VWS V14.00,2013-01-03 14:05:00,
2013-01-03 09:10:00,-10.7,-14.7,30.18,North,355,0.0,0.0,82,0.00,,---,0.00,,VWS V14.00,2013-01-03 14:10:00,
2013-01-03 09:15:00,-10.4,-14.4,30.18,North,355,0.0,0.0,82,0.00,,---,0.00,,VWS V14.00,2013-01-03 14:15:00,
2013-01-03 09:20:00,-10.0,-14.0,30.19,North,355,0.0,0.0,82,0.00,,---,0.00,,VWS V14.00,2013-01-03 14:20:00,
2013-01-03 09:25:00,-9.3,-13.3,30.19,North,355,0.0,0.0,82,0.00,,---,0.00,,VWS V14.00,2013-01-03 14:25:00,
2013-01-03 09:30:00,-8.6,-12.4,30.19,North,355,0.0,0.0,83,0.00,,---,0.00,,VWS V14.00,2013-01-03 14:30:00,
2013-01-03 09:35:00,-7.9,-11.7,30.19,North,355,0.0,0.0,83,0.00,,---,0.00,,VWS V14.00,2013-01-03 14:35:00,
2013-01-03 09:40:00,-7.0,-10.6,30.19,North,355,0.0,0.0,84,0.00,,---,0.00,,VWS V14.00,2013-01-03 14:40:00,
2013-01-03 09:45:00,-6.6,-10.4,30.19,North,355,0.0,0.0,83,0.00,,---,0.00,,VWS V14.00,2013-01-03 14:45:00,
2013-01-03 09:50:00,-6.1,-9.9,30.19,North,355,0.0,0.0,83,0.00,,---,0.00,,VWS V14.00,2013-01-03 14:50:00,
2013-01-03 09:55:00,-5.5,-9.1,30.19,North,355,0.0,0.0,84,0.00,,---,0.00,,VWS V14.00,2013-01-03 14:55:00,
2013-01-03 10:00:00,-4.7,-8.3,30.19,North,355,0.0,0.0,84,0.00,,---,0.00,,VWS V14.00,2013-01-03 15:00:00,
2013-01-03 10:05:00,-3.6,-7.2,30.19,NNW,346,0.0,0.0,84,0.00,,---,0.00,,VWS V14.00,2013-01-03 15:05:00,
2013-01-03 10:10:00,-2.3,-5.9,30.18,NNW,346,0.0,0.0,84,0.00,,---,0.00,,VWS V14.00,2013-01-03 15:10:00,
2013-01-03 10:15:00,-1.7,-5.3,30.18,NNW,346,0.0,0.0,84,0.00,,---,0.00,,VWS V14.00,2013-01-03 15:15:00,
2013-01-03 10:20:00,-1.0,-4.9,30.18,NNW,342,0.0,0.0,83,0.00,,---,0.00,,VWS V14.00,2013-01-03 15:20:00,
2013-01-03 10:25:00,-0.1,-3.9,30.18,NNW,342,0.0,0.0,83,0.00,,---,0.00,,VWS V14.00,2013-01-03 15:25:00,
2013-01-03 10:30:00,0.5,-3.7,30.19,NNW,342,0.0,0.0,82,0.00,,---,0.00,,VWS V14.00,2013-01-03 15:30:00,
2013-01-03 10:35:00,1.0,-3.2,30.19,NNW,342,0.0,2.0,82,0.00,,---,0.00,,VWS V14.00,2013-01-03 15:35:00,
2013-01-03 10:40:00,1.4,-3.1,30.18,NNW,342,3.0,3.0,81,0.00,,---,0.00,,VWS V14.00,2013-01-03 15:40:00,
2013-01-03 10:45:00,1.9,-2.8,30.18,NNW,342,0.0,3.0,80,0.00,,---,0.00,,VWS V14.00,2013-01-03 15:45:00,
2013-01-03 10:50:00,2.5,-2.2,30.18,North,360,0.0,2.0,80,0.00,,---,0.00,,VWS V14.00,2013-01-03 15:50:00,
2013-01-03 10:55:00,2.9,-2.4,30.17,North,5,0.0,2.0,78,0.00,,---,0.00,,VWS V14.00,2013-01-03 15:55:00,
2013-01-03 11:00:00,3.6,-1.7,30.17,North,5,0.0,2.0,78,0.00,,---,0.00,,VWS V14.00,2013-01-03 16:00:00,
2013-01-03 11:05:00,4.7,-0.9,30.17,North,9,0.0,2.0,77,0.00,,---,0.00,,VWS V14.00,2013-01-03 16:05:00,
2013-01-03 11:10:00,5.6,-0.6,30.17,North,10,0.0,2.0,75,0.00,,---,0.00,,VWS V14.00,2013-01-03 16:10:00,
2013-01-03 11:15:00,5.8,-1.0,30.17,NNE,12,1.0,2.0,73,0.00,,---,0.00,,VWS V14.00,2013-01-03 16:15:00,
2013-01-03 11:21:00,6.0,-0.8,30.17,NNE,12,0.0,1.0,73,0.00,,---,0.00,,VWS V14.00,2013-01-03 16:21:00,
2013-01-03 11:26:00,7.1,-0.3,30.16,NNE,12,0.0,1.0,71,0.00,,---,0.00,,VWS V14.00,2013-01-03 16:26:00,
2013-01-03 11:30:00,13.0,8.6,29.98,NE,39,6.0,12.0,82,0.00,,---,0.02,309.00,VWS V14.00,2013-01-03 16:30:00,
2013-01-03 11:31:00,7.2,-0.8,30.16,NNE,12,0.0,1.0,69,0.00,,---,0.00,,VWS V14.00,2013-01-03 16:31:00,
2013-01-03 11:36:00,7.4,-0.3,30.15,NNE,12,0.0,1.0,70,0.00,,---,0.00,,VWS V14.00,2013-01-03 16:36:00,
2013-01-03 11:41:00,8.3,-0.1,30.15,NNE,12,0.0,1.0,68,0.00,,---,0.00,,VWS V14.00,2013-01-03 16:41:00,
2013-01-03 11:46:00,9.2,0.5,30.15,North,11,0.0,1.0,67,0.00,,---,0.00,,VWS V14.00,2013-01-03 16:46:00,
2013-01-03 11:51:00,9.6,1.2,30.15,North,11,0.0,1.0,68,0.00,,---,0.00,,VWS V14.00,2013-01-03 16:51:00,
2013-01-03 11:56:00,9.9,1.1,30.15,WNW,299,3.0,3.0,67,0.00,,---,0.00,,VWS V14.00,2013-01-03 16:56:00,
2013-01-03 12:00:00,12.5,7.2,30.00,North,9,0.0,15.0,79,0.00,,---,0.02,278.00,VWS V14.00,2013-01-03 17:00:00,
2013-01-03 12:01:00,9.4,0.7,30.15,NW,306,3.0,6.0,67,0.00,,---,0.00,,VWS V14.00,2013-01-03 17:01:00,
2013-01-03 12:06:00,9.4,1.0,30.14,WNW,301,0.0,6.0,68,0.00,,---,0.00,,VWS V14.00,2013-01-03 17:06:00,
2013-01-03 12:11:00,9.4,1.0,30.14,SW,228,3.0,6.0,68,0.00,,---,0.00,,VWS V14.00,2013-01-03 17:11:00,
2013-01-03 12:16:00,9.4,1.0,30.14,SW,219,0.0,0.0,68,0.00,,---,0.00,,VWS V14.00,2013-01-03 17:16:00,
2013-01-03 12:21:00,9.7,1.6,30.13,NW,306,2.0,3.0,69,0.00,,---,0.00,,VWS V14.00,2013-01-03 17:21:00,
2013-01-03 12:26:00,9.6,1.2,30.13,WNW,303,0.0,3.0,68,0.00,,---,0.00,,VWS V14.00,2013-01-03 17:26:00,
2013-01-03 12:30:00,11.9,6.7,30.02,NNW,348,2.0,9.0,79,0.00,,---,0.02,206.00,VWS V14.00,2013-01-03 17:30:00,
2013-01-03 12:31:00,9.8,1.4,30.12,WNW,303,0.0,3.0,68,0.00,,---,0.00,,VWS V14.00,2013-01-03 17:31:00,
2013-01-03 12:36:00,10.2,1.8,30.12,WNW,303,0.0,3.0,68,0.00,,---,0.00,,VWS V14.00,2013-01-03 17:36:00,
2013-01-03 12:41:00,11.0,1.5,30.12,WNW,303,0.0,3.0,65,0.00,,---,0.00,,VWS V14.00,2013-01-03 17:41:00,
2013-01-03 12:46:00,11.3,1.8,30.12,WNW,303,0.0,0.0,65,0.00,,---,0.00,,VWS V14.00,2013-01-03 17:46:00,
2013-01-03 12:51:00,11.4,0.9,30.12,WNW,303,0.0,0.0,62,0.00,,---,0.00,,VWS V14.00,2013-01-03 17:51:00,
2013-01-03 12:56:00,11.3,0.5,30.11,WNW,303,0.0,1.0,61,0.00,,---,0.00,,VWS V14.00,2013-01-03 17:56:00,
2013-01-03 13:00:00,9.6,3.9,30.04,North,5,10.0,16.0,77,0.00,,---,0.02,42.00,VWS V14.00,2013-01-03 18:00:00,
2013-01-03 13:01:00,11.0,0.9,30.11,WNW,303,1.0,4.0,63,0.00,,---,0.00,,VWS V14.00,2013-01-03 18:01:00,
2013-01-03 13:07:00,10.7,0.9,30.11,WNW,303,0.0,4.0,64,0.00,,---,0.00,,VWS V14.00,2013-01-03 18:07:00,
2013-01-03 13:12:00,10.9,1.5,30.11,WNW,303,0.0,4.0,65,0.00,,---,0.00,,VWS V14.00,2013-01-03 18:12:00,
2013-01-03 13:17:00,11.1,2.0,30.10,WNW,303,0.0,0.0,66,0.00,,---,0.00,,VWS V14.00,2013-01-03 18:17:00,
2013-01-03 13:22:00,11.3,2.2,30.10,WNW,303,0.0,0.0,66,0.00,,---,0.00,,VWS V14.00,2013-01-03 18:22:00,
2013-01-03 13:27:00,11.2,2.4,30.10,WNW,303,0.0,3.0,67,0.00,,---,0.00,,VWS V14.00,2013-01-03 18:27:00,
2013-01-03 13:30:00,7.1,1.7,30.07,NNW,330,2.0,13.0,78,0.00,,---,0.02,19.00,VWS V14.00,2013-01-03 18:30:00,
2013-01-03 13:32:00,10.8,1.7,30.10,WNW,303,3.0,3.0,66,0.00,,---,0.00,,VWS V14.00,2013-01-03 18:32:00,
2013-01-03 13:37:00,10.5,1.7,30.10,WNW,303,1.0,3.0,67,0.00,,---,0.00,,VWS V14.00,2013-01-03 18:37:00,
2013-01-03 13:42:00,10.4,2.0,30.10,WNW,303,3.0,4.0,68,0.00,,---,0.00,,VWS V14.00,2013-01-03 18:42:00,
2013-01-03 13:47:00,10.3,2.2,30.10,WNW,303,0.0,2.0,69,0.00,,---,0.00,,VWS V14.00,2013-01-03 18:47:00,
2013-01-03 13:52:00,10.3,2.5,30.09,WNW,303,0.0,2.0,70,0.00,,---,0.00,,VWS V14.00,2013-01-03 18:52:00,
2013-01-03 13:57:00,10.3,2.5,30.09,WNW,303,0.0,2.0,70,0.00,,---,0.00,,VWS V14.00,2013-01-03 18:57:00,
2013-01-03 14:00:00,5.4,0.0,30.09,WNW,292,5.0,13.0,78,0.00,,---,0.02,9.00,VWS V14.00,2013-01-03 19:00:00,
2013-01-03 14:02:00,10.3,2.8,30.09,WNW,303,0.0,2.0,71,0.00,,---,0.00,,VWS V14.00,2013-01-03 19:02:00,
2013-01-03 14:07:00,10.2,2.7,30.09,WNW,303,0.0,2.0,71,0.00,,---,0.00,,VWS V14.00,2013-01-03 19:07:00,
2013-01-03 14:12:00,10.1,2.6,30.09,WNW,303,4.0,4.0,71,0.00,,---,0.00,,VWS V14.00,2013-01-03 19:12:00,
2013-01-03 14:17:00,10.0,2.5,30.09,WNW,303,0.0,0.0,71,0.00,,---,0.00,,VWS V14.00,2013-01-03 19:17:00,
2013-01-03 14:30:00,4.0,-1.0,30.10,WNW,301,0.0,11.0,79,0.00,,---,0.02,0.00,VWS V14.00,2013-01-03 19:30:00,
2013-01-03 14:53:00,10.1,3.2,30.08,WNW,303,1.0,2.0,73,0.00,,---,0.00,,VWS V14.00,2013-01-03 19:53:00,
2013-01-03 14:58:00,10.1,2.9,30.08,WNW,303,0.0,2.0,72,0.00,,---,0.00,,VWS V14.00,2013-01-03 19:58:00,
2013-01-03 15:00:00,2.9,-1.9,30.11,West,281,7.0,12.0,80,0.00,,---,0.02,0.00,VWS V14.00,2013-01-03 20:00:00,
2013-01-03 15:03:00,10.4,3.5,30.07,WNW,303,0.0,2.0,73,0.00,,---,0.00,,VWS V14.00,2013-01-03 20:03:00,
2013-01-03 15:08:00,10.7,3.2,30.06,WNW,303,0.0,2.0,71,0.00,,---,0.00,,VWS V14.00,2013-01-03 20:08:00,
2013-01-03 15:13:00,10.7,2.9,30.06,WNW,303,0.0,2.0,70,0.00,,---,0.00,,VWS V14.00,2013-01-03 20:13:00,
2013-01-03 15:18:00,10.6,2.8,30.06,WNW,303,0.0,0.0,70,0.00,,---,0.00,,VWS V14.00,2013-01-03 20:18:00,
2013-01-03 15:23:00,10.5,2.7,30.06,WNW,303,0.0,0.0,70,0.00,,---,0.00,,VWS V14.00,2013-01-03 20:23:00,
2013-01-03 15:28:00,10.5,3.3,30.06,WNW,303,0.0,0.0,72,0.00,,---,0.00,,VWS V14.00,2013-01-03 20:28:00,
2013-01-03 15:30:00,1.7,-3.0,30.14,WNW,302,2.0,10.0,80,0.00,,---,0.02,0.00,VWS V14.00,2013-01-03 20:30:00,
2013-01-03 15:33:00,10.4,3.5,30.06,WNW,303,0.0,0.0,73,0.00,,---,0.00,,VWS V14.00,2013-01-03 20:33:00,
2013-01-03 15:38:00,10.2,3.6,30.06,WNW,303,0.0,0.0,74,0.00,,---,0.00,,VWS V14.00,2013-01-03 20:38:00,
2013-01-03 15:43:00,10.0,3.4,30.07,WNW,303,0.0,0.0,74,0.00,,---,0.00,,VWS V14.00,2013-01-03 20:43:00,
2013-01-03 15:48:00,10.0,3.7,30.06,WNW,303,0.0,0.0,75,0.00,,---,0.00,,VWS V14.00,2013-01-03 20:48:00,
2013-01-03 15:53:00,9.9,3.6,30.06,WNW,303,0.0,0.0,75,0.00,,---,0.00,,VWS V14.00,2013-01-03 20:53:00,
2013-01-03 15:58:00,9.9,3.9,30.06,WNW,303,0.0,0.0,76,0.00,,---,0.00,,VWS V14.00,2013-01-03 20:58:00,
2013-01-03 16:00:00,0.7,-4.0,30.15,West,269,0.0,12.0,80,0.00,,---,0.02,0.00,VWS V14.00,2013-01-03 21:00:00,
2013-01-03 16:03:00,9.7,3.4,30.06,WNW,303,0.0,0.0,75,0.00,,---,0.00,,VWS V14.00,2013-01-03 21:03:00,
2013-01-03 16:08:00,9.6,3.6,30.06,WNW,303,0.0,0.0,76,0.00,,---,0.00,,VWS V14.00,2013-01-03 21:08:00,
2013-01-03 16:13:00,9.5,3.5,30.06,WNW,303,0.0,0.0,76,0.00,,---,0.00,,VWS V14.00,2013-01-03 21:13:00,
2013-01-03 16:18:00,9.5,3.5,30.06,WNW,303,0.0,0.0,76,0.00,,---,0.00,,VWS V14.00,2013-01-03 21:18:00,
2013-01-03 16:23:00,9.4,3.4,30.06,WNW,303,0.0,0.0,76,0.00,,---,0.00,,VWS V14.00,2013-01-03 21:23:00,
2013-01-03 16:28:00,9.2,3.2,30.06,WNW,303,0.0,0.0,76,0.00,,---,0.00,,VWS V14.00,2013-01-03 21:28:00,
2013-01-03 16:30:00,-0.3,-5.2,30.16,NNW,339,0.0,11.0,79,0.00,,---,0.02,0.00,VWS V14.00,2013-01-03 21:30:00,
2013-01-03 16:33:00,9.0,3.3,30.06,WNW,303,0.0,0.0,77,0.00,,---,0.00,,VWS V14.00,2013-01-03 21:33:00,
2013-01-03 16:38:00,8.8,3.4,30.06,WNW,303,0.0,0.0,78,0.00,,---,0.00,,VWS V14.00,2013-01-03 21:38:00,
2013-01-03 16:43:00,8.7,3.5,30.06,WNW,303,0.0,0.0,79,0.00,,---,0.00,,VWS V14.00,2013-01-03 21:43:00,
2013-01-03 16:48:00,8.7,3.5,30.06,WNW,303,0.0,0.0,79,0.00,,---,0.00,,VWS V14.00,2013-01-03 21:48:00,
2013-01-03 16:53:00,8.6,3.4,30.07,WNW,303,0.0,0.0,79,0.00,,---,0.00,,VWS V14.00,2013-01-03 21:53:00,
2013-01-03 16:59:00,8.5,3.6,30.07,WNW,303,0.0,0.0,80,0.00,,---,0.00,,VWS V14.00,2013-01-03 21:59:00,
2013-01-03 17:00:00,-1.2,-6.1,30.17,NNE,12,0.0,11.0,79,0.00,,---,0.02,0.00,VWS V14.00,2013-01-03 22:00:00,
2013-01-03 17:04:00,8.3,3.4,30.07,WNW,303,0.0,0.0,80,0.00,,---,0.00,,VWS V14.00,2013-01-03 22:04:00,
2013-01-03 17:09:00,8.2,3.3,30.07,WNW,303,0.0,0.0,80,0.00,,---,0.00,,VWS V14.00,2013-01-03 22:09:00,
2013-01-03 17:13:00,8.1,3.2,30.07,WNW,303,0.0,2.0,80,0.00,,---,0.00,,VWS V14.00,2013-01-03 22:13:00,
2013-01-03 17:19:00,8.0,3.4,30.07,WNW,303,1.0,2.0,81,0.00,,---,0.00,,VWS V14.00,2013-01-03 22:19:00,
2013-01-03 17:24:00,7.9,3.3,30.07,WNW,303,0.0,2.0,81,0.00,,---,0.00,,VWS V14.00,2013-01-03 22:24:00,
2013-01-03 17:29:00,8.0,3.4,30.07,WNW,303,0.0,2.0,81,0.00,,---,0.00,,VWS V14.00,2013-01-03 22:29:00,
2013-01-03 17:30:00,-2.2,-7.4,30.17,NW,315,6.0,11.0,78,0.00,,---,0.02,0.00,VWS V14.00,2013-01-03 22:30:00,
2013-01-03 17:34:00,8.2,3.6,30.07,WNW,303,0.0,2.0,81,0.00,,---,0.00,,VWS V14.00,2013-01-03 22:34:00,
2013-01-03 17:39:00,8.2,3.6,30.07,WNW,303,0.0,2.0,81,0.00,,---,0.00,,VWS V14.00,2013-01-03 22:39:00,
2013-01-03 17:44:00,8.1,3.5,30.06,WNW,303,0.0,2.0,81,0.00,,---,0.00,,VWS V14.00,2013-01-03 22:44:00,
2013-01-03 17:49:00,7.9,3.6,30.06,WNW,303,0.0,1.0,82,0.00,,---,0.00,,VWS V14.00,2013-01-03 22:49:00,
2013-01-03 17:54:00,7.9,3.6,30.06,WNW,303,0.0,1.0,82,0.00,,---,0.00,,VWS V14.00,2013-01-03 22:54:00,
2013-01-03 17:59:00,7.8,3.5,30.06,WNW,303,0.0,1.0,82,0.00,,---,0.00,,VWS V14.00,2013-01-03 22:59:00,
2013-01-03 18:00:00,-2.7,-7.8,30.16,NNW,334,8.0,13.0,78,0.00,,---,0.02,0.00,VWS V14.00,2013-01-03 23:00:00,
2013-01-03 18:04:00,7.8,3.5,30.06,WNW,303,0.0,1.0,82,0.00,,---,0.00,,VWS V14.00,2013-01-03 23:04:00,
2013-01-03 18:09:00,7.8,3.5,30.06,WNW,303,0.0,1.0,82,0.00,,---,0.00,,VWS V14.00,2013-01-03 23:09:00,
2013-01-03 18:14:00,7.9,6.1,30.06,WNW,303,0.0,1.0,92,0.00,,---,0.00,,VWS V14.00,2013-01-03 23:14:00,
2013-01-03 18:18:00,7.9,3.8,30.06,WNW,303,0.0,0.0,83,0.00,,---,0.00,,VWS V14.00,2013-01-03 23:18:00,
2013-01-03 18:24:00,7.9,3.8,30.06,WNW,303,0.0,0.0,83,0.00,,---,0.00,,VWS V14.00,2013-01-03 23:24:00,
2013-01-03 18:28:00,7.9,3.8,30.06,North,5,1.0,3.0,83,0.00,,---,0.00,,VWS V14.00,2013-01-03 23:28:00,
2013-01-03 18:30:00,-3.0,-8.1,30.18,WNW,288,1.0,13.0,78,0.00,,---,0.02,0.00,VWS V14.00,2013-01-03 23:30:00,
2013-01-03 18:33:00,8.2,4.1,30.06,NE,38,0.0,3.0,83,0.00,,---,0.00,,VWS V14.00,2013-01-03 23:33:00,
2013-01-03 18:38:00,8.4,4.6,30.06,East,97,0.0,3.0,84,0.00,,---,0.00,,VWS V14.00,2013-01-03 23:38:00,
2013-01-03 18:43:00,8.9,5.1,30.05,ENE,66,0.0,3.0,84,0.00,,---,0.00,,VWS V14.00,2013-01-03 23:43:00,
2013-01-03 18:48:00,9.1,5.3,30.06,ENE,66,0.0,0.0,84,0.00,,---,0.00,,VWS V14.00,2013-01-03 23:48:00,
2013-01-03 18:53:00,9.2,5.4,30.06,ENE,66,0.0,0.0,84,0.00,,---,0.00,,VWS V14.00,2013-01-03 23:53:00,
2013-01-03 18:58:00,9.1,5.3,30.05,ENE,66,0.0,0.0,84,0.00,,---,0.00,,VWS V14.00,2013-01-03 23:58:00,
2013-01-03 19:00:00,-3.9,-8.8,30.19,NW,313,0.0,8.0,79,0.00,,---,0.02,0.00,VWS V14.00,2013-01-04 00:00:00,
2013-01-03 19:04:00,9.0,5.2,30.05,ENE,66,0.0,0.0,84,0.00,,---,0.00,,VWS V14.00,2013-01-04 00:04:00,
2013-01-03 19:09:00,8.9,5.1,30.04,ENE,66,0.0,0.0,84,0.00,,---,0.00,,VWS V14.00,2013-01-04 00:09:00,
2013-01-03 19:14:00,8.8,5.0,30.04,ENE,66,0.0,0.0,84,0.00,,---,0.00,,VWS V14.00,2013-01-04 00:14:00,
2013-01-03 19:19:00,8.9,5.1,30.04,ENE,66,2.0,2.0,84,0.00,,---,0.00,,VWS V14.00,2013-01-04 00:19:00,
2013-01-03 19:24:00,9.1,5.5,30.05,ENE,66,0.0,2.0,85,0.00,,---,0.00,,VWS V14.00,2013-01-04 00:24:00,
2013-01-03 19:29:00,9.1,5.5,30.05,ENE,66,0.0,2.0,85,0.00,,---,0.00,,VWS V14.00,2013-01-04 00:29:00,
2013-01-03 19:30:00,-4.8,-9.4,30.20,WNW,302,3.0,6.0,80,0.00,,---,0.02,0.00,VWS V14.00,2013-01-04 00:30:00,
2013-01-03 19:34:00,9.0,5.4,30.05,ENE,66,0.0,2.0,85,0.00,,---,0.00,,VWS V14.00,2013-01-04 00:34:00,
2013-01-03 19:39:00,9.1,5.5,30.05,ENE,66,0.0,2.0,85,0.00,,---,0.00,,VWS V14.00,2013-01-04 00:39:00,
2013-01-03 19:44:00,9.4,5.8,30.05,ENE,66,0.0,2.0,85,0.00,,---,0.00,,VWS V14.00,2013-01-04 00:44:00,
2013-01-03 19:49:00,9.3,5.7,30.04,ENE,66,0.0,0.0,85,0.00,,---,0.00,,VWS V14.00,2013-01-04 00:49:00,
2013-01-03 19:54:00,9.2,5.6,30.04,ENE,66,0.0,0.0,85,0.00,,---,0.00,,VWS V14.00,2013-01-04 00:54:00,
2013-01-03 19:59:00,9.1,5.5,30.04,ENE,66,0.0,0.0,85,0.00,,---,0.00,,VWS V14.00,2013-01-04 00:59:00,
2013-01-03 20:00:00,-5.3,-9.6,30.21,WNW,298,0.0,6.0,81,0.00,,---,0.02,0.00,VWS V14.00,2013-01-04 01:00:00,
2013-01-03 20:04:00,9.0,5.4,30.04,ENE,66,0.0,1.0,85,0.00,,---,0.00,,VWS V14.00,2013-01-04 01:04:00,
2013-01-03 20:09:00,8.9,5.3,30.04,East,79,0.0,2.0,85,0.00,,---,0.00,,VWS V14.00,2013-01-04 01:09:00,
2013-01-03 20:14:00,8.9,5.3,30.03,East,79,0.0,2.0,85,0.00,,---,0.00,,VWS V14.00,2013-01-04 01:14:00,
2013-01-03 20:19:00,8.9,5.3,30.03,East,85,0.0,0.0,85,0.00,,---,0.00,,VWS V14.00,2013-01-04 01:19:00,
2013-01-03 20:24:00,8.8,5.2,30.03,East,85,0.0,1.0,85,0.00,,---,0.00,,VWS V14.00,2013-01-04 01:24:00,
2013-01-03 20:29:00,8.7,5.1,30.03,East,85,0.0,1.0,85,0.00,,---,0.00,,VWS V14.00,2013-01-04 01:29:00,
2013-01-03 20:30:00,-5.6,-9.9,30.21,SW,234,0.0,6.0,81,0.00,,---,0.02,0.00,VWS V14.00,2013-01-04 01:30:00,
2013-01-03 20:34:00,8.8,5.2,30.03,East,85,0.0,1.0,85,0.00,,---,0.00,,VWS V14.00,2013-01-04 01:34:00,
2013-01-03 20:39:00,8.8,5.2,30.03,East,85,0.0,1.0,85,0.00,,---,0.00,,VWS V14.00,2013-01-04 01:39:00,
2013-01-03 20:44:00,8.7,5.1,30.03,East,85,0.0,1.0,85,0.00,,---,0.00,,VWS V14.00,2013-01-04 01:44:00,
2013-01-03 20:49:00,8.6,5.0,30.02,East,85,0.0,1.0,85,0.00,,---,0.00,,VWS V14.00,2013-01-04 01:49:00,
2013-01-03 20:54:00,8.7,5.4,30.02,East,85,0.0,1.0,86,0.00,,---,0.00,,VWS V14.00,2013-01-04 01:54:00,
2013-01-03 20:59:00,8.8,5.5,30.03,East,85,0.0,1.0,86,0.00,,---,0.00,,VWS V14.00,2013-01-04 01:59:00,
2013-01-03 21:00:00,-5.3,-9.6,30.20,WSW,250,0.0,6.0,81,0.00,,---,0.02,0.00,VWS V14.00,2013-01-04 02:00:00,
2013-01-03 21:04:00,8.9,5.6,30.03,East,85,0.0,1.0,86,0.00,,---,0.00,,VWS V14.00,2013-01-04 02:04:00,
2013-01-03 21:09:00,9.2,5.9,30.03,East,85,0.0,1.0,86,0.00,,---,0.00,,VWS V14.00,2013-01-04 02:09:00,
2013-01-03 21:14:00,9.5,6.2,30.02,East,85,0.0,1.0,86,0.00,,---,0.00,,VWS V14.00,2013-01-04 02:14:00,
2013-01-03 21:19:00,10.3,7.2,30.02,East,85,0.0,1.0,87,0.00,,---,0.00,,VWS V14.00,2013-01-04 02:19:00,
2013-01-03 21:24:00,10.7,7.6,30.02,East,85,0.0,1.0,87,0.00,,---,0.00,,VWS V14.00,2013-01-04 02:24:00,
2013-01-03 21:29:00,11.3,8.4,30.02,SSE,162,1.0,3.0,88,0.00,,---,0.00,,VWS V14.00,2013-01-04 02:29:00,
2013-01-03 21:30:00,-6.1,-10.4,30.22,NW,317,0.0,5.0,81,0.00,,---,0.02,0.00,VWS V14.00,2013-01-04 02:30:00,
2013-01-03 21:34:00,12.6,9.7,30.02,South,169,0.0,4.0,88,0.00,,---,0.00,,VWS V14.00,2013-01-04 02:34:00,
2013-01-03 21:39:00,12.9,10.0,30.02,South,169,0.0,4.0,88,0.00,,---,0.00,,VWS V14.00,2013-01-04 02:39:00,
2013-01-03 21:44:00,12.9,10.0,30.02,South,169,0.0,4.0,88,0.00,,---,0.00,,VWS V14.00,2013-01-04 02:44:00,
2013-01-03 21:49:00,13.0,9.9,30.02,South,169,0.0,0.0,87,0.00,,---,0.00,,VWS V14.00,2013-01-04 02:49:00,
2013-01-03 21:54:00,13.0,10.1,30.02,South,169,1.0,1.0,88,0.00,,---,0.00,,VWS V14.00,2013-01-04 02:54:00,
2013-01-03 21:59:00,13.6,10.7,30.01,South,180,0.0,5.0,88,0.00,,---,0.00,,VWS V14.00,2013-01-04 02:59:00,
2013-01-03 22:00:00,-7.3,-11.8,30.22,NW,319,0.0,2.0,80,0.00,,---,0.02,0.00,VWS V14.00,2013-01-04 03:00:00,
2013-01-03 22:04:00,14.1,11.2,30.01,ENE,60,0.0,5.0,88,0.00,,---,0.00,,VWS V14.00,2013-01-04 03:04:00,
2013-01-03 22:09:00,14.8,11.9,30.01,SSE,159,0.0,5.0,88,0.00,,---,0.00,,VWS V14.00,2013-01-04 03:09:00,
2013-01-03 22:14:00,15.2,12.3,30.01,East,86,1.0,5.0,88,0.00,,---,0.00,,VWS V14.00,2013-01-04 03:14:00,
2013-01-03 22:19:00,15.3,12.4,30.01,East,96,0.0,3.0,88,0.00,,---,0.00,,VWS V14.00,2013-01-04 03:19:00,
2013-01-03 22:24:00,15.5,12.6,30.01,East,96,0.0,3.0,88,0.00,,---,0.00,,VWS V14.00,2013-01-04 03:24:00,
2013-01-03 22:29:00,15.5,12.3,30.01,East,96,0.0,3.0,87,0.00,,---,0.00,,VWS V14.00,2013-01-04 03:29:00,
2013-01-03 22:30:00,-9.0,-13.5,30.22,NW,319,0.0,0.0,80,0.00,,---,0.02,0.00,VWS V14.00,2013-01-04 03:30:00,
2013-01-03 22:34:00,15.5,12.3,30.01,East,96,1.0,3.0,87,0.00,,---,0.00,,VWS V14.00,2013-01-04 03:34:00,
2013-01-03 22:39:00,15.5,12.3,30.00,East,84,3.0,4.0,87,0.00,,---,0.00,,VWS V14.00,2013-01-04 03:39:00,
2013-01-03 22:44:00,15.9,12.7,30.00,ENE,61,4.0,4.0,87,0.00,,---,0.00,,VWS V14.00,2013-01-04 03:44:00,
2013-01-03 22:50:00,16.2,13.0,30.00,ENE,64,0.0,0.0,87,0.00,,---,0.00,,VWS V14.00,2013-01-04 03:50:00,
2013-01-03 22:55:00,16.2,13.0,30.00,West,271,1.0,5.0,87,0.00,,---,0.00,,VWS V14.00,2013-01-04 03:55:00,
2013-01-03 22:59:00,16.2,13.0,30.00,ENE,58,0.0,5.0,87,0.00,,---,0.00,,VWS V14.00,2013-01-04 03:59:00,
2013-01-03 23:00:00,-9.8,-14.0,30.23,NNW,336,0.0,3.0,81,0.00,,---,0.02,0.00,VWS V14.00,2013-01-04 04:00:00,
2013-01-03 23:05:00,16.3,13.1,29.99,ENE,70,3.0,5.0,87,0.00,,---,0.00,,VWS V14.00,2013-01-04 04:05:00,
2013-01-03 23:10:00,16.4,13.2,29.99,East,89,0.0,5.0,87,0.00,,---,0.00,,VWS V14.00,2013-01-04 04:10:00,
2013-01-03 23:15:00,16.5,13.1,29.98,South,189,0.0,5.0,86,0.00,,---,0.00,,VWS V14.00,2013-01-04 04:15:00,
2013-01-03 23:20:00,16.5,13.1,29.98,East,89,0.0,2.0,86,0.00,,---,0.00,,VWS V14.00,2013-01-04 04:20:00,
2013-01-03 23:25:00,16.6,13.1,29.98,South,173,0.0,5.0,86,0.00,,---,0.00,,VWS V14.00,2013-01-04 04:25:00,
2013-01-03 23:30:00,16.6,13.1,29.98,ENE,66,0.0,5.0,86,0.00,,---,0.00,,VWS V14.00,2013-01-04 04:30:00,
2013-01-03 23:35:00,16.7,13.2,29.97,ENE,61,3.0,5.0,86,0.00,,---,0.00,,VWS V14.00,2013-01-04 04:35:00,
2013-01-03 23:40:00,16.8,13.4,29.97,ENE,75,1.0,5.0,86,0.00,,---,0.00,,VWS V14.00,2013-01-04 04:40:00,
2013-01-03 23:45:00,17.1,13.6,29.97,East,83,0.0,9.0,86,0.00,,---,0.00,,VWS V14.00,2013-01-04 04:45:00,
2013-01-03 23:50:00,17.2,13.7,29.97,SSE,148,0.0,2.0,86,0.00,,---,0.00,,VWS V14.00,2013-01-04 04:50:00,
2013-01-03 23:55:00,17.3,13.8,29.96,East,95,2.0,5.0,86,0.00,,---,0.00,,VWS V14.00,2013-01-04 04:55:00,